Waarnemingen

Advertentie
Mijn weer
Langres, Frankrijk (7283): temperatuur & dauwpunt: 19.06.2019 14:00:00 - 25.06.2019 14:00:00 (CEST)Langres, Frankrijk (7283): temperatuur 5cm: 19.06.2019 14:00:00 - 25.06.2019 14:00:00 (CEST)Langres, Frankrijk (7283): windsnelheid & windstoten: 19.06.2019 14:00:00 - 25.06.2019 14:00:00 (CEST)Langres, Frankrijk (7283): windrichting: 19.06.2019 14:00:00 - 25.06.2019 14:00:00 (CEST)Langres, Frankrijk (7283): luchtdruk: 19.06.2019 14:00:00 - 25.06.2019 14:00:00 (CEST)Langres, Frankrijk (7283): zicht: 19.06.2019 14:00:00 - 25.06.2019 14:00:00 (CEST)Langres, Frankrijk (7283): Zonneschijnduur: 19.06.2019 14:00:00 - 25.06.2019 14:00:00 (CEST)Langres, Frankrijk (7283): neerslag: 19.06.2019 14:00:00 - 25.06.2019 14:00:00 (CEST)
Datum & Tijd tt [°C] td [°C] tt 5cm [°C] ff [km/u] ff [kn] fx [km/u] fx [kn] dd ppp [hPa] vv [km] sd [min] rr [mm]
25.06.2019 14:00:00 - - - - - - - - - - - -
25.06.2019 13:00:00 29,1 15,2 33,7 13 7 29 16 Z 1017,3 20 60 0,0
25.06.2019 12:00:00 28,6 15,2 33,6 12 7 29 16 Z 1017,3 20 60 0,0
25.06.2019 11:00:00 27,1 14,1 31,0 16 9 33 18 Z 1017,3 18 60 0,0
25.06.2019 10:00:00 25,2 14,9 29,6 14 8 30 16 Z 1017,4 20 60 0,0
25.06.2019 09:00:00 23,6 15,4 26,5 13 7 30 16 Z 1017,4 20 60 0,0
25.06.2019 08:00:00 22,5 15,8 23,2 9 5 29 15 Z 1017,2 20 60 0,0
25.06.2019 07:00:00 21,4 15,0 18,1 14 8 25 14 ZZW 1016,9 20 44 0,0
25.06.2019 06:00:00 20,0 15,6 17,2 10 5 21 11 Z 1016,6 20 0 0,0
25.06.2019 05:00:00 19,6 16,1 13,7 6 3 16 9 Z 1016,3 20 0 0,0
25.06.2019 04:00:00 17,4 15,0 13,6 8 5 14 8 Z 1016,6 5 0 0,0
25.06.2019 03:00:00 20,6 15,4 17,9 9 5 20 11 ZO 1015,9 20 0 0,0
25.06.2019 02:00:00 22,5 15,3 21,4 11 6 19 10 ZO 1015,6 20 0 0,0
25.06.2019 01:00:00 23,7 14,7 19,8 10 6 22 12 OZO 1015,4 20 0 0,0
25.06.2019 00:00:00 22,4 14,0 17,1 10 5 17 9 ZO 1016,0 20 0 0,0
24.06.2019 23:00:00 23,8 13,6 19,2 8 4 16 9 ZO 1015,7 20 0 0,0
24.06.2019 22:00:00 25,0 13,5 22,8 10 6 17 9 OZO 1015,3 20 13 0,0
24.06.2019 21:00:00 25,3 15,9 24,3 8 5 13 7 OZO 1015,0 20 60 0,0
24.06.2019 20:00:00 27,3 16,6 28,1 7 4 14 8 OZO 1014,6 20 52 0,0
24.06.2019 19:00:00 27,0 16,3 28,4 7 4 17 9 OZO 1014,7 20 4 0,0
24.06.2019 18:00:00 28,4 15,3 30,5 8 5 18 10 OZO 1014,7 20 50 0,0
24.06.2019 17:00:00 29,1 13,3 33,0 10 5 19 11 OZO 1014,7 19 60 0,0
24.06.2019 16:00:00 29,2 12,6 33,9 8 4 21 11 OZO 1015,0 20 60 0,0
24.06.2019 15:00:00 29,1 14,1 33,2 9 5 21 11 OZO 1015,3 20 60 0,0
24.06.2019 14:00:00 29,1 16,0 33,3 8 4 19 10 Z 1015,4 20 60 0,0
24.06.2019 13:00:00 27,8 15,8 32,4 9 5 20 11 OZO 1015,5 19 60 0,0
24.06.2019 12:00:00 26,7 17,5 30,1 9 5 18 10 OZO 1015,6 20 57 0,0
24.06.2019 11:00:00 25,2 17,7 29,6 10 6 18 10 OZO 1015,8 20 60 0,0
24.06.2019 10:00:00 24,2 17,2 27,7 4 2 14 7 O 1016,1 18 60 0,0
24.06.2019 09:00:00 21,9 16,4 24,5 7 4 16 9 O 1016,4 20 60 0,0
24.06.2019 08:00:00 20,5 16,3 21,1 8 4 13 7 O 1016,5 20 60 0,0
24.06.2019 07:00:00 18,7 15,8 14,5 8 4 13 7 O 1016,6 20 52 0,2
24.06.2019 06:00:00 16,8 15,0 12,5 6 3 9 5 O 1016,9 20 0 0,0
24.06.2019 05:00:00 16,9 14,9 11,8 6 3 9 5 O 1017,2 20 0 0,0
24.06.2019 04:00:00 17,4 15,2 12,2 6 3 8 5 O 1017,1 20 0 0,0
24.06.2019 03:00:00 17,8 15,4 13,8 6 3 10 6 O 1017,2 19 0 0,0
24.06.2019 02:00:00 18,1 15,4 14,0 5 3 9 5 O 1017,0 20 0 0,0
24.06.2019 01:00:00 18,7 15,4 16,6 7 4 12 7 O 1016,8 20 0 0,0
24.06.2019 00:00:00 19,3 15,6 17,3 7 4 16 9 OZO 1016,6 20 0 0,0
23.06.2019 23:00:00 19,8 15,4 18,1 9 5 15 8 OZO 1016,2 20 0 0,0
23.06.2019 22:00:00 21,2 15,1 18,6 8 5 12 6 OZO 1015,7 20 13 0,0
23.06.2019 21:00:00 22,2 15,1 21,2 6 3 13 7 O 1015,0 18 16 0,0
23.06.2019 20:00:00 23,2 15,3 24,2 7 4 19 10 OZO 1014,5 20 48 0,0
23.06.2019 19:00:00 24,7 15,1 26,2 9 5 17 9 OZO 1014,3 20 39 0,0
23.06.2019 18:00:00 25,0 15,3 27,6 10 5 21 11 OZO 1014,0 20 49 0,0
23.06.2019 17:00:00 25,6 15,6 27,3 10 5 23 12 OZO 1014,1 20 35 0,0
23.06.2019 16:00:00 25,2 16,1 29,1 10 5 21 11 OZO 1014,3 20 56 0,0
23.06.2019 15:00:00 24,9 15,2 29,2 10 6 24 13 OZO 1014,4 19 60 0,0
23.06.2019 14:00:00 24,4 15,3 29,6 11 6 25 14 OZO 1014,6 20 60 0,0
23.06.2019 13:00:00 23,7 15,7 28,4 10 5 22 12 O 1014,7 20 60 0,0
23.06.2019 12:00:00 22,4 15,0 26,9 10 6 23 12 O 1015,2 20 60 0,0
23.06.2019 11:00:00 21,2 14,1 25,7 10 6 27 14 ONO 1015,6 20 60 0,0
23.06.2019 10:00:00 20,3 15,3 23,7 9 5 21 11 O 1015,9 20 60 0,0
23.06.2019 09:00:00 18,3 15,4 19,9 7 4 18 10 O 1016,1 17 50 0,0
23.06.2019 08:00:00 17,5 15,1 17,2 5 3 11 6 O 1016,2 9 60 0,0
23.06.2019 07:00:00 16,4 15,4 10,8 3 2 8 4 ONO 1016,3 8 52 0,0
23.06.2019 06:00:00 14,4 13,4 9,1 4 2 8 5 O 1016,6 4,9 0 0,0
23.06.2019 05:00:00 14,2 13,1 9,9 5 3 8 5 O 1016,8 6 0 0,0
23.06.2019 04:00:00 14,3 13,2 10,1 4 2 9 5 O 1017,1 11 0 0,0
23.06.2019 03:00:00 15,0 13,5 12,2 5 3 10 6 NO 1016,7 19 0 0,0
23.06.2019 02:00:00 15,5 14,2 10,8 6 3 9 5 NNO 1017,0 19 0 0,0
23.06.2019 01:00:00 14,9 13,6 10,8 0 0 3 2 N 1017,3 14 0 0,0
23.06.2019 00:00:00 15,6 14,0 11,7 0 0 7 4 N 1017,3 18 0 0,0
22.06.2019 23:00:00 16,9 14,4 14,3 4 2 16 9 OZO 1016,8 20 0 0,0
22.06.2019 22:00:00 17,5 14,2 15,2 6 3 13 7 O 1016,6 8 13 0,0
22.06.2019 21:00:00 19,5 14,3 18,8 6 3 18 10 NNO 1016,0 20 58 0,0
22.06.2019 20:00:00 20,7 13,6 24,1 7 4 16 9 NNO 1015,3 20 60 0,0
22.06.2019 19:00:00 21,4 14,1 26,1 7 4 17 9 NNO 1015,0 20 57 0,0
22.06.2019 18:00:00 21,4 14,3 26,6 9 5 21 11 N 1015,0 20 60 0,0
22.06.2019 17:00:00 21,1 14,3 26,3 10 5 21 12 NNO 1015,9 20 55 0,0
22.06.2019 16:00:00 20,8 14,9 24,5 8 4 18 10 N 1015,8 20 41 0,0
22.06.2019 15:00:00 19,5 14,1 23,0 6 3 14 8 NNO 1016,3 20 19 0,0
22.06.2019 14:00:00 19,1 14,4 22,8 6 3 18 10 NNO 1016,6 20 24 0,0
22.06.2019 13:00:00 18,3 14,0 20,6 7 4 16 9 NO 1016,9 19 15 0,0
22.06.2019 12:00:00 17,6 13,5 20,6 5 3 15 8 NO 1016,7 20 42 0,0
22.06.2019 11:00:00 16,7 12,2 16,0 8 4 16 9 NO 1016,9 20 27 0,0
22.06.2019 10:00:00 13,9 11,6 14,1 8 4 16 9 NNO 1017,3 19 0 0,0
22.06.2019 09:00:00 12,9 11,0 12,4 7 4 13 7 NNO 1017,4 20 0 0,0
22.06.2019 08:00:00 12,3 10,5 12,0 6 3 18 10 NNO 1017,5 20 0 0,0
22.06.2019 07:00:00 12,2 10,4 11,5 7 4 19 11 N 1017,5 20 0 0,0
22.06.2019 06:00:00 12,0 10,1 11,4 11 6 24 13 N 1017,6 19 0 1,8
22.06.2019 05:00:00 12,5 9,9 11,4 8 5 27 15 N 1017,7 20 0 1,5
22.06.2019 04:00:00 12,6 9,6 11,4 12 7 34 18 N 1017,9 20 0 2,2
22.06.2019 03:00:00 12,7 9,3 11,5 14 7 28 15 N 1018,3 8 0 2,4
22.06.2019 02:00:00 14,3 8,5 13,6 11 6 23 13 N 1018,7 20 0 0,0
22.06.2019 01:00:00 14,5 8,9 12,6 11 6 26 14 N 1018,8 20 0 0,2
22.06.2019 00:00:00 15,8 8,3 15,4 9 5 29 15 N 1018,9 20 0 0,0
21.06.2019 23:00:00 16,6 8,3 16,2 14 8 28 15 N 1018,6 20 0 0,0
21.06.2019 22:00:00 17,8 8,4 17,3 13 7 26 14 N 1018,1 20 13 0,0
21.06.2019 21:00:00 18,9 9,1 18,5 10 5 25 14 N 1017,6 20 60 0,0
21.06.2019 20:00:00 20,0 9,0 20,6 12 6 27 15 N 1016,8 20 22 0,0
21.06.2019 19:00:00 20,6 8,9 22,6 10 5 22 12 N 1016,7 20 30 0,0
21.06.2019 18:00:00 21,9 9,8 23,5 9 5 21 11 NNO 1016,5 20 44 0,0
21.06.2019 17:00:00 21,0 9,3 23,9 11 6 25 13 NO 1016,8 20 43 0,0
21.06.2019 16:00:00 22,2 9,4 24,1 13 7 24 13 N 1016,8 20 38 0,0
21.06.2019 15:00:00 21,2 9,4 22,5 9 5 23 12 NNO 1017,3 20 29 0,0
21.06.2019 14:00:00 20,9 9,5 22,7 9 5 21 12 NNO 1017,5 20 41 0,0
21.06.2019 13:00:00 19,8 9,9 22,5 12 7 24 13 NNO 1017,9 20 41 0,0
21.06.2019 12:00:00 19,8 11,0 21,9 9 5 22 12 NNO 1017,9 19 51 0,0
21.06.2019 11:00:00 18,6 10,2 22,5 10 6 23 12 N 1018,0 20 49 0,0
21.06.2019 10:00:00 18,0 11,1 21,4 10 5 21 11 NNO 1018,1 20 54 0,0
21.06.2019 09:00:00 17,1 11,6 19,2 9 5 18 10 NNO 1018,3 20 55 0,0
21.06.2019 08:00:00 15,6 11,4 16,7 8 4 17 9 NNO 1017,9 20 56 0,0
21.06.2019 07:00:00 14,8 11,6 12,7 5 3 11 6 NO 1017,8 20 25 0,0
21.06.2019 06:00:00 13,8 10,8 13,1 7 4 14 8 N 1017,8 20 0 0,0
21.06.2019 05:00:00 13,5 10,8 12,6 5 3 12 6 N 1017,8 20 0 0,0
21.06.2019 04:00:00 13,9 11,1 12,5 6 3 14 8 N 1017,7 20 0 0,0
21.06.2019 03:00:00 14,2 11,5 11,9 6 3 13 7 NNW 1017,8 20 0 0,0
21.06.2019 02:00:00 14,1 12,1 11,8 4 2 11 6 N 1017,6 20 0 0,0
21.06.2019 01:00:00 14,9 12,6 10,4 5 3 10 5 NNW 1017,5 20 0 0,0
21.06.2019 00:00:00 15,0 12,3 11,9 4 2 11 6 NW 1017,4 20 0 0,0
20.06.2019 23:00:00 15,6 12,5 13,7 3 2 9 5 NNW 1017,1 20 0 0,0
20.06.2019 22:00:00 16,0 12,2 14,7 3 2 14 7 NNW 1016,6 20 12 0,0
20.06.2019 21:00:00 17,4 12,3 17,2 6 4 16 9 WNW 1016,0 20 58 0,0
20.06.2019 20:00:00 17,9 12,6 19,6 12 7 23 12 WNW 1015,5 20 43 0,0
20.06.2019 19:00:00 18,1 12,5 20,4 15 8 32 17 W 1015,2 20 42 0,0
20.06.2019 18:00:00 20,2 13,2 22,2 16 9 34 19 WNW 1014,5 20 51 0,0
20.06.2019 17:00:00 19,7 12,9 21,2 19 10 35 19 W 1014,3 20 11 0,0
20.06.2019 16:00:00 20,5 11,4 23,9 13 7 23 13 WZW 1013,7 20 11 0,0
20.06.2019 15:00:00 20,5 11,7 25,3 14 7 27 15 W 1013,8 20 9 0,0
20.06.2019 14:00:00 21,5 11,5 25,3 16 8 32 17 WZW 1013,6 20 30 0,0
20.06.2019 13:00:00 20,5 12,5 23,1 18 10 35 19 WZW 1014,0 20 21 0,0
20.06.2019 12:00:00 19,5 12,3 19,6 15 8 27 15 WZW 1013,9 20 17 0,0
20.06.2019 11:00:00 20,2 12,7 20,4 12 6 30 16 WZW 1013,4 20 39 0,0
20.06.2019 10:00:00 18,9 12,6 23,8 14 8 26 14 WZW 1013,7 20 56 0,0
20.06.2019 09:00:00 17,0 13,1 16,8 8 4 21 11 WZW 1013,9 20 8 0,0
20.06.2019 08:00:00 15,7 12,8 15,0 10 5 21 12 WZW 1014,3 20 0 0,0
20.06.2019 07:00:00 14,9 12,0 14,5 10 5 16 9 WZW 1014,0 20 0 0,0
20.06.2019 06:00:00 14,9 11,9 13,9 8 4 16 8 ZW 1013,6 20 0 0,0
20.06.2019 05:00:00 14,9 11,9 12,0 10 5 19 10 WZW 1013,3 20 0 0,0
20.06.2019 04:00:00 14,8 11,8 12,5 5 3 13 7 ZW 1013,4 20 0 0,0
20.06.2019 03:00:00 15,3 11,9 12,4 5 3 11 6 ZW 1013,5 20 0 0,0
20.06.2019 02:00:00 16,7 11,8 15,2 9 5 24 13 W 1013,0 20 0 0,0
20.06.2019 01:00:00 17,6 12,1 16,8 16 8 29 15 W 1012,5 20 0 0,0
20.06.2019 00:00:00 17,8 12,3 16,3 11 6 22 12 WZW 1012,5 20 0 0,0
19.06.2019 23:00:00 18,0 12,0 12,7 14 8 23 12 W 1012,2 20 0 0,0
19.06.2019 22:00:00 17,1 12,4 15,1 5 3 41 22 Z 1012,2 20 12 0,0
19.06.2019 21:00:00 21,7 13,3 21,4 21 11 34 18 W 1010,2 20 38 0,0
19.06.2019 20:00:00 23,7 13,3 24,9 17 9 30 16 W 1009,0 20 43 0,0
19.06.2019 19:00:00 25,0 13,2 26,2 14 8 28 15 W 1008,4 20 21 0,0
19.06.2019 18:00:00 26,1 14,9 28,2 8 4 18 10 Z 1007,9 20 36 0,0
19.06.2019 17:00:00 26,3 15,0 28,6 7 4 20 11 Z 1008,2 20 38 0,0
19.06.2019 16:00:00 27,3 13,6 29,2 8 4 19 11 Z 1008,2 20 45 0,0
19.06.2019 15:00:00 26,6 12,6 30,1 7 4 20 11 Z 1009,0 20 52 0,0
19.06.2019 14:00:00 24,3 11,3 23,5 12 6 31 17 ZZW 1010,0 20 23 0,0

tt = temperatuur
td = dauwpunt
tt 5cm = temperatuur 5cm
ff = windsnelheid
fx = windstoten
dd = windrichting
ppp = luchtdruk
vv = zicht
sd = Zonneschijnduur
rr = neerslag

Weerstations in de omgeving